Theta_e
282 282 281 280 279 279 278 278 277 277 277 277 276 276 276 276 276 276 276 276 276 276 275 275 275 275 275 275 274 274 274 274 274 274 274 273 274 274 274 273 273 273 274 275 275 274 273 273 273 274 274 273 273 273 273 273 274 274 274 274 274 275 275 274 273 274 278 282 284 285 288 291 292 294 294 295 296 298 296 299 299 300 301 303 304
282 281 280 280 279 278 278 277 277 276 276 275 275 275 275 275 275 275 275 275 275 275 275 275 275 274 273 273 273 273 273 273 273 273 273 272 272 273 273 273 272 272 273 274 273 273 273 272 272 273 274 273 273 273 273 273 273 273 273 274 274 274 276 275 275 275 276 281 282 285 288 291 290 294 294 294 296 297 297 299 300 301 301 303 305
281 280 279 278 278 277 277 276 275 275 274 274 274 274 274 274 275 274 274 274 275 274 274 274 273 273 272 272 272 272 272 272 272 272 272 272 271 272 272 272 272 272 272 272 272 272 272 272 272 273 273 272 273 273 273 273 274 273 274 274 274 275 276 276 276 276 278 280 284 284 287 290 291 292 294 295 296 297 297 298 299 300 301 303 305
280 279 278 277 277 276 275 275 274 274 273 274 274 274 274 274 274 273 273 274 273 274 273 273 272 272 271 271 271 271 271 272 271 272 271 271 271 271 271 272 273 272 272 271 271 271 272 271 272 272 272 272 272 272 273 273 273 273 273 274 275 275 276 277 278 278 278 278 282 284 288 289 290 292 294 296 296 297 297 297 299 300 302 304 305
278 277 277 276 275 275 274 274 273 273 273 273 273 273 273 273 273 273 273 272 272 272 272 272 271 271 270 270 271 271 271 271 271 271 271 272 271 272 272 272 272 271 272 271 272 271 271 271 272 272 272 272 272 273 273 273 273 273 273 274 275 276 276 277 278 280 279 279 280 284 288 290 291 292 294 294 295 296 296 296 297 298 301 304 306
277 276 276 275 274 274 273 273 273 273 273 273 272 273 273 272 272 272 272 271 271 271 271 271 271 270 270 270 270 270 271 271 271 271 272 272 272 272 271 272 272 271 270 271 271 271 271 272 272 272 272 272 272 273 274 274 274 273 273 273 273 275 276 277 279 281 282 282 283 283 286 288 289 291 293 294 294 294 294 296 297 298 299 302 305
276 275 275 274 273 273 273 273 273 272 272 272 272 272 272 272 271 271 271 270 270 270 270 270 270 270 270 270 270 270 270 271 271 271 271 271 271 271 271 271 271 271 271 271 271 271 272 272 272 272 272 272 273 273 273 274 274 274 274 274 274 274 273 274 277 279 281 282 284 285 286 288 289 289 292 294 294 294 293 293 294 297 299 300 301
275 274 274 273 273 273 273 273 272 272 272 272 271 271 271 271 270 270 269 269 269 269 269 269 269 270 270 270 270 271 271 271 271 271 271 271 270 270 270 270 270 271 271 272 272 273 273 273 273 273 273 273 273 274 274 273 274 274 275 275 274 273 273 274 274 276 278 280 282 284 286 287 288 290 293 292 292 293 294 294 293 295 297 299 301
274 273 273 272 272 272 272 272 271 271 271 271 270 270 270 269 269 268 268 268 268 268 268 268 268 269 270 270 270 271 270 270 270 270 270 271 271 271 271 271 271 271 272 272 273 273 274 274 274 274 275 276 277 277 277 277 274 273 274 274 274 274 273 274 274 275 276 277 281 285 286 286 287 288 289 290 290 290 293 294 294 295 297 298 301
273 273 272 272 272 272 271 271 270 270 270 270 269 269 268 268 267 267 267 267 267 268 268 268 268 269 269 270 270 270 270 270 271 272 274 272 272 272 272 272 272 272 272 272 273 274 274 275 275 277 277 277 278 278 279 279 279 277 275 275 274 274 274 274 275 276 276 276 279 284 284 285 286 287 288 290 292 293 292 292 292 295 297 298 301
273 272 272 272 271 271 270 270 270 269 269 268 267 266 266 266 266 265 266 266 266 267 267 268 268 269 269 269 269 269 269 270 272 274 275 276 274 272 272 272 273 273 274 274 274 274 275 276 276 277 278 278 278 279 280 280 280 280 280 280 279 277 275 274 275 276 276 277 279 283 285 285 286 288 289 290 291 291 291 292 293 295 295 295 294
272 272 272 271 270 270 270 269 268 268 267 266 265 265 265 264 264 264 265 265 266 267 267 268 268 269 268 268 268 268 269 271 273 274 275 276 276 274 273 273 274 274 274 275 275 275 275 276 276 277 277 277 278 277 278 279 280 280 281 281 281 281 281 278 276 276 277 277 277 280 284 285 286 287 288 289 289 290 291 291 292 292 294 296 297
271 271 270 270 269 269 268 267 266 266 265 265 264 264 263 263 263 264 264 265 265 266 267 267 267 268 268 267 267 268 268 271 273 274 275 276 277 276 274 274 274 274 275 274 274 274 275 275 275 276 277 279 278 278 277 277 278 279 280 280 280 281 281 283 283 281 280 279 279 280 282 285 285 287 289 288 290 288 288 287 288 289 291 294 299
270 269 269 268 268 268 267 265 265 265 264 263 263 263 263 263 263 264 264 265 265 266 266 266 266 267 267 267 267 267 268 270 273 274 276 276 277 277 274 274 274 274 274 274 274 274 274 274 274 275 276 277 278 278 278 277 277 277 277 277 277 278 280 281 283 284 283 281 281 281 283 286 286 287 289 289 287 286 286 285 287 287 287 288 294
269 268 267 268 267 266 265 264 264 264 263 262 262 262 262 263 263 264 264 265 265 265 265 265 265 265 266 266 266 267 267 271 273 275 276 277 278 277 274 274 273 273 274 274 274 274 274 275 275 275 276 276 277 279 278 277 277 276 276 276 277 277 278 279 281 282 282 283 284 284 285 287 288 288 289 289 288 288 288 287 287 288 289 291 291
268 268 267 266 266 265 264 264 263 263 262 262 261 262 262 262 262 264 264 265 265 265 265 265 265 265 265 265 266 266 268 272 274 275 276 277 278 274 273 273 273 273 273 273 274 274 274 274 275 275 275 276 278 281 280 279 278 276 275 276 276 277 279 282 283 284 284 285 285 286 287 288 289 288 289 289 289 289 287 287 287 287 286 286 286
267 267 266 265 265 264 264 263 262 261 261 261 261 261 262 262 263 264 263 264 264 264 264 264 265 265 264 265 265 266 268 271 274 275 275 277 276 273 273 272 272 272 273 273 274 274 274 275 275 275 275 276 279 281 282 281 278 277 276 276 276 277 278 281 284 285 285 286 286 287 288 289 290 290 290 290 288 288 287 286 285 287 286 284 286
267 266 265 264 264 263 263 262 261 261 261 260 260 261 262 262 262 263 263 263 263 263 264 264 264 265 265 265 266 267 268 271 274 274 275 276 276 273 272 272 272 272 272 273 274 274 275 277 277 275 275 276 279 281 282 280 278 277 277 276 276 276 277 280 282 283 285 286 286 287 288 288 289 290 290 290 290 290 286 284 286 287 285 285 285
266 265 265 264 263 262 261 261 261 260 260 260 260 260 261 261 262 262 262 263 263 263 264 264 264 265 265 266 269 269 268 270 273 274 275 276 275 273 273 272 271 272 272 272 273 274 274 275 277 277 277 277 280 281 282 281 279 278 277 277 276 276 277 280 281 282 283 284 285 286 286 287 287 288 288 289 289 289 289 288 287 286 285 286 286
265 265 264 263 262 261 260 260 260 259 259 259 260 260 261 261 262 262 262 262 263 263 264 264 263 265 267 267 268 269 269 269 271 274 275 276 276 273 273 272 271 271 272 272 272 272 273 273 275 277 279 279 280 281 282 282 280 279 279 277 276 276 279 280 281 282 283 284 285 286 286 287 288 288 288 289 289 288 288 289 289 288 287 286 287
264 263 262 261 260 260 260 259 258 259 259 259 260 260 261 261 261 261 260 262 262 262 262 263 264 266 267 268 269 269 269 269 270 274 275 275 276 276 273 272 272 272 271 271 271 271 271 272 273 276 278 279 279 280 281 282 282 281 280 279 279 280 282 280 281 282 281 282 283 284 285 286 286 286 287 288 288 289 289 290 290 291 290 288 288
263 262 261 260 259 259 259 259 258 258 258 258 258 259 260 260 260 260 261 261 261 261 262 264 265 266 267 268 269 269 270 271 270 272 274 275 276 277 274 273 273 272 271 270 270 270 271 271 272 274 277 278 279 280 281 281 282 280 281 283 283 283 281 282 282 282 282 282 282 283 283 284 285 285 286 287 288 288 289 290 292 293 294 293 291
261 261 260 258 258 258 258 257 257 257 257 258 258 258 260 259 259 260 260 260 261 261 263 264 265 265 267 268 268 269 269 270 272 271 273 275 276 277 277 275 276 273 270 269 269 270 271 271 272 275 277 278 279 280 281 281 281 281 283 284 284 284 283 282 282 282 282 282 282 282 283 283 284 285 286 286 288 289 290 291 293 295 295 295 296
260 259 258 257 257 257 257 257 257 257 258 258 258 258 258 259 259 261 260 261 262 262 264 264 265 265 266 266 267 268 269 269 271 272 272 275 276 276 276 276 276 272 271 270 270 270 271 272 273 277 278 279 280 281 281 281 280 282 283 284 284 284 282 282 281 281 282 282 282 282 282 284 285 285 286 287 288 289 291 292 294 296 297 297 297
258 257 257 257 256 256 256 257 257 258 258 258 258 259 258 259 260 261 261 262 262 262 263 264 265 265 265 265 266 267 268 268 269 271 273 274 275 275 276 276 275 275 270 270 270 271 274 276 276 277 277 278 279 281 281 281 281 282 283 283 283 283 282 282 281 281 281 281 282 282 283 284 286 286 288 289 289 289 289 290 293 294 295 294 295
257 256 256 256 256 256 256 257 257 258 257 259 258 260 259 259 260 261 261 262 262 262 263 264 265 265 265 265 265 266 267 267 268 269 271 272 273 274 274 274 273 273 272 270 273 274 274 274 274 274 275 275 275 277 277 278 280 281 282 283 282 283 283 282 282 281 281 282 283 283 284 286 287 288 288 288 288 287 288 290 292 292 292 293 295
256 256 257 256 256 256 257 258 258 257 257 258 259 259 260 260 260 261 262 262 262 263 264 265 264 264 264 264 265 266 266 267 268 269 270 270 270 271 270 270 271 271 269 269 271 270 269 270 270 273 273 275 275 277 280 281 280 281 282 283 283 283 283 283 282 282 282 282 283 284 286 287 288 287 287 287 286 288 290 291 292 293 293 295 296
257 256 256 257 257 257 258 257 258 259 258 259 260 260 260 260 261 262 262 262 262 263 264 264 264 264 264 264 265 265 265 267 268 268 269 270 270 270 269 269 268 268 268 269 269 268 267 269 269 269 269 269 270 271 273 275 279 281 281 283 283 283 283 284 284 284 284 285 285 286 286 286 285 286 286 286 287 288 291 292 293 293 293 294 295
256 256 257 257 257 258 258 257 259 259 258 258 259 260 260 260 261 262 264 264 265 265 265 265 265 265 265 265 264 264 265 266 268 272 271 273 270 269 268 268 268 268 270 272 268 267 266 266 266 266 266 267 267 268 269 270 272 275 280 283 283 283 283 283 283 283 283 284 283 284 284 285 285 285 286 286 286 288 291 292 293 294 292 295 294
256 256 257 258 258 258 258 257 257 258 258 259 258 258 259 262 263 263 263 266 268 268 269 266 266 266 266 266 266 265 265 267 273 273 273 273 273 273 272 272 272 271 271 271 268 265 264 264 265 265 265 265 265 266 267 268 269 270 272 275 280 283 284 284 284 284 284 284 284 284 284 285 285 285 286 286 287 290 291 291 292 293 293 293 293
257 256 257 257 258 258 258 258 258 258 258 258 258 259 259 260 263 265 265 266 267 268 268 268 269 269 267 266 267 270 271 272 272 272 272 272 273 272 272 271 271 272 271 266 264 264 263 263 264 264 264 265 265 265 266 266 267 268 269 271 274 277 283 284 285 285 285 285 285 285 285 285 285 285 285 286 287 290 292 291 293 293 294 294 293
257 257 257 258 257 257 258 258 257 258 258 258 258 258 259 260 261 264 265 265 266 267 267 267 268 268 269 268 267 266 269 271 272 272 272 272 271 271 271 270 270 271 270 268 263 263 263 263 263 264 264 264 264 265 265 266 266 267 268 268 270 273 274 277 282 285 285 285 285 285 285 285 285 286 286 286 287 289 291 291 292 293 294 294 294
257 257 257 257 257 257 257 257 258 258 257 257 257 257 258 258 259 259 261 263 265 265 266 267 267 267 268 268 269 269 270 270 271 271 271 271 271 270 270 268 269 269 268 262 261 262 263 263 263 264 264 264 264 265 265 266 266 266 267 267 268 270 272 274 276 280 284 285 285 285 285 285 285 286 286 286 287 289 291 291 292 294 294 293 293
257 257 257 257 257 257 257 257 257 257 257 257 257 256 255 255 255 254 255 257 258 260 263 265 265 266 266 267 268 269 270 270 270 270 270 270 270 270 268 263 266 267 265 260 261 261 262 263 263 263 264 265 265 265 265 265 266 266 267 267 268 269 271 272 274 278 282 285 285 285 285 285 285 285 286 287 288 289 291 291 292 293 293 293 293
257 256 256 257 258 258 258 258 257 257 257 256 255 255 254 254 254 254 254 253 254 254 255 257 260 263 263 264 266 268 269 269 269 269 269 269 269 268 265 260 259 259 260 260 260 261 262 262 262 263 264 264 265 265 265 265 265 266 266 266 267 268 269 270 271 274 277 280 284 285 286 286 286 286 286 286 288 289 290 291 291 293 293 292 293
257 257 256 257 258 258 258 258 258 257 256 255 255 255 254 254 254 254 253 253 253 253 254 255 255 258 263 264 266 267 268 268 268 268 268 268 268 265 258 257 257 257 258 259 259 260 262 262 263 263 264 264 265 265 265 265 266 266 266 267 267 267 267 268 270 271 273 276 280 285 286 286 286 286 286 287 287 289 290 291 291 291 293 292 292
257 257 257 257 257 256 256 256 256 256 256 254 254 253 254 254 254 253 253 252 252 253 253 253 254 256 258 258 260 263 266 267 266 266 266 266 266 260 258 257 257 257 257 258 259 260 261 262 263 263 264 264 265 265 266 266 266 266 267 267 267 267 267 268 269 270 271 273 277 282 286 286 286 286 286 286 287 289 290 290 291 290 292 291 290
257 257 256 255 254 254 254 255 256 255 254 253 253 253 253 253 253 252 252 251 252 252 252 253 254 253 254 255 258 259 260 262 263 262 262 262 259 258 258 257 257 257 257 257 258 259 260 261 263 263 264 264 265 266 266 266 266 266 266 266 267 267 269 268 268 268 269 271 273 275 281 286 286 287 286 287 287 289 290 289 291 291 290 291 292
257 257 257 256 256 255 255 254 254 253 253 253 253 253 253 252 252 252 251 251 251 251 252 252 252 253 253 254 253 259 258 255 254 254 255 256 257 258 257 257 257 257 257 257 258 259 259 260 262 263 264 264 265 266 266 266 266 266 266 266 266 266 266 266 267 267 268 268 270 272 275 280 286 287 287 287 287 289 290 290 290 291 290 291 292
257 257 257 258 256 255 253 253 253 253 253 252 252 252 252 252 252 251 250 250 250 251 251 251 252 252 252 252 256 259 254 253 253 254 254 255 256 256 257 256 256 256 256 256 257 258 259 260 261 263 263 264 264 265 266 266 266 266 267 266 266 266 266 266 266 266 266 267 268 269 272 275 280 287 287 287 288 289 289 290 290 290 291 291 292
258 257 257 258 256 254 252 252 252 252 252 252 252 252 252 251 251 251 250 250 251 250 250 250 251 251 252 256 262 261 254 251 252 253 254 254 255 255 256 256 256 256 256 256 257 258 259 260 261 262 263 264 264 266 266 266 266 266 266 266 266 266 266 266 266 266 266 266 267 268 269 272 275 281 286 287 287 289 290 290 290 290 291 291 292
258 257 256 255 254 253 252 252 252 251 251 251 251 252 251 251 250 250 250 250 250 250 250 250 251 251 253 259 260 260 254 251 252 252 253 253 254 254 255 256 256 256 256 256 257 258 259 260 261 262 263 263 264 265 266 266 266 266 266 266 266 266 266 266 266 266 266 266 266 267 268 270 273 277 283 287 288 289 289 290 290 290 291 291 291
257 256 255 253 253 253 252 251 251 250 251 251 251 250 250 250 249 250 250 250 250 250 250 249 250 250 250 256 256 257 251 251 251 251 252 253 253 253 254 255 255 256 256 257 258 259 259 260 261 262 263 263 264 265 266 266 266 266 266 266 266 266 266 266 266 266 266 266 266 267 268 269 272 276 281 286 288 288 289 289 290 290 290 291 290
254 253 253 252 252 252 251 251 251 251 251 250 250 250 249 249 249 248 249 248 249 249 249 249 249 249 249 250 251 250 250 250 250 251 251 252 252 253 253 254 254 255 256 257 258 259 259 260 262 263 263 264 264 265 267 267 267 266 266 266 266 266 266 266 266 265 266 265 266 267 268 269 271 275 279 284 287 287 288 289 289 290 290 291 291
253 252 252 251 251 250 250 250 250 250 249 249 249 249 248 249 249 249 249 249 249 249 249 248 248 248 249 249 249 249 249 249 250 250 251 251 251 252 253 253 253 254 255 256 257 258 259 261 262 262 262 263 264 265 267 268 268 267 267 267 267 266 266 266 266 266 266 266 266 267 268 269 270 272 277 283 287 287 287 288 289 288 289 290 290
252 252 251 251 250 250 249 249 249 249 249 249 249 249 248 248 247 248 249 249 249 249 248 248 248 248 248 248 249 249 249 249 249 250 251 251 251 252 252 252 253 253 255 256 257 258 259 260 262 262 262 263 264 264 266 268 268 268 268 268 268 268 268 268 267 267 267 266 266 266 267 269 270 273 277 281 286 287 287 287 288 289 289 289 290
252 252 251 251 250 249 249 249 248 248 249 249 249 249 249 248 248 248 248 248 248 248 248 248 247 247 247 248 248 248 249 249 249 250 250 250 250 251 251 251 252 253 254 255 257 257 258 260 261 262 262 263 264 264 266 268 268 268 268 269 269 269 268 268 267 267 267 267 267 266 267 268 270 272 277 282 285 286 286 287 287 287 288 289 289
252 252 251 251 250 250 249 249 249 248 249 249 249 249 249 248 248 248 248 247 247 247 247 247 247 247 247 248 248 248 248 249 249 250 250 250 250 251 250 250 251 252 253 255 256 257 258 259 260 261 262 263 263 264 265 268 268 268 268 269 269 269 269 268 268 267 267 267 267 267 267 268 269 271 275 281 285 286 286 286 286 287 287 288 289
252 252 251 251 250 250 250 250 249 250 250 249 249 248 248 248 248 247 247 247 247 247 247 247 247 247 247 247 248 248 248 249 249 249 250 250 250 250 250 250 251 251 252 253 255 256 257 259 260 261 262 263 263 264 265 268 268 268 268 269 269 269 269 268 268 267 267 267 266 266 267 267 268 269 271 274 279 285 286 286 286 286 287 287 288
252 251 251 251 250 250 250 250 250 250 249 249 249 249 248 248 248 248 248 247 247 248 247 247 247 247 247 247 247 247 248 248 248 249 249 249 250 249 250 250 250 251 252 253 254 255 256 258 259 260 262 262 263 264 266 269 269 269 268 269 269 269 269 268 268 267 267 267 266 266 266 266 267 267 269 270 272 276 283 286 286 286 286 286 286
252 252 251 251 250 249 249 249 248 248 249 249 249 249 249 249 249 248 248 247 248 248 248 247 247 247 247 247 247 247 248 248 248 249 249 249 249 249 249 249 249 250 251 252 253 255 256 257 259 260 261 263 263 264 266 269 269 269 269 269 269 270 269 269 268 267 267 267 267 266 266 265 266 266 267 268 269 271 272 277 285 286 286 287 286
Wind_Speed
12 11 10 10 10 10 9 8 8 6 6 6 7 6 6 6 6 6 6 7 7 7 6 6 7 8 9 9 10 11 12 12 11 11 12 14 13 15 15 15 16 15 16 19 18 18 19 20 20 20 18 19 17 16 17 17 17 17 16 17 18 18 19 20 22 26 18 18 18 17 19 19 19 18 19 17 17 17 17 15 15 13 13 12 13
12 11 9 9 10 9 8 7 6 6 6 6 6 6 5 6 6 6 7 7 6 6 7 6 7 8 9 10 11 11 12 13 12 11 12 13 14 12 13 15 15 17 17 20 18 17 18 19 20 19 18 19 19 18 16 16 17 17 17 16 17 18 18 19 21 22 25 15 19 18 19 19 21 19 18 18 17 16 17 14 12 12 12 12 11
11 10 9 9 9 8 7 7 6 7 7 6 6 5 5 5 5 6 6 6 6 5 6 7 8 9 10 11 11 11 12 12 11 12 13 14 15 15 14 15 16 18 19 19 19 18 19 19 20 18 16 18 18 18 17 18 16 18 20 18 19 19 19 20 20 22 25 19 16 17 17 17 18 17 17 17 17 16 17 15 12 11 11 13 14
11 10 9 9 9 8 7 6 7 6 6 5 5 5 5 5 5 5 6 6 6 6 6 8 8 9 11 11 11 12 12 12 13 12 14 14 15 15 15 16 17 18 19 19 18 18 18 19 19 18 18 19 19 17 17 18 17 16 19 19 19 20 19 20 22 21 21 21 18 17 15 16 16 19 16 16 17 16 16 15 12 12 13 13 14
11 10 10 10 9 8 7 7 7 7 6 5 5 5 5 5 4 5 5 6 6 6 7 7 8 9 10 11 12 12 13 13 14 14 13 14 15 16 16 17 18 18 18 18 19 19 20 20 20 19 18 18 18 18 18 20 19 18 18 17 18 18 16 18 21 22 22 21 19 16 16 14 13 14 14 15 15 15 16 14 12 13 14 13 12
11 10 10 9 8 8 8 7 7 7 6 5 5 5 5 5 4 4 5 6 6 6 7 7 7 10 11 12 12 13 13 13 13 14 15 15 15 15 16 17 18 18 19 18 17 19 19 21 21 19 19 18 18 19 19 22 20 20 21 19 18 17 18 19 19 21 21 20 16 15 16 15 14 14 12 13 15 13 13 12 12 12 13 14 12
11 10 10 9 8 8 8 7 6 6 6 5 4 4 4 4 4 5 5 5 6 7 7 8 9 10 11 11 12 13 14 13 13 14 15 15 16 16 16 18 18 17 17 18 20 19 21 21 21 21 20 20 20 21 21 21 19 22 21 19 19 19 18 18 18 19 19 19 17 16 16 17 16 14 11 12 15 13 13 13 14 10 10 11 13
11 10 10 9 8 8 8 7 6 5 4 4 4 4 4 3 4 4 5 5 6 7 8 9 9 9 11 11 12 12 13 13 14 14 14 14 15 17 18 18 18 19 19 19 19 21 22 23 23 22 22 20 21 21 21 20 19 20 19 18 18 18 17 16 17 18 17 16 16 17 15 15 12 11 9 10 10 11 10 10 14 13 11 10 10
11 10 10 9 9 8 7 6 5 5 5 4 4 4 3 3 4 5 5 5 5 6 8 9 10 11 11 11 12 12 12 12 11 11 13 16 17 18 19 19 19 19 20 20 20 21 21 20 22 21 24 27 32 29 27 24 20 19 20 18 19 16 16 15 16 17 17 16 17 16 13 12 11 10 12 12 10 12 10 8 12 13 13 13 11
11 10 10 9 8 8 7 6 6 5 5 4 4 3 3 4 5 5 5 5 6 7 8 9 10 10 11 11 11 11 11 10 13 21 22 18 19 18 18 19 18 19 21 21 21 20 21 22 20 31 31 33 33 35 35 36 35 29 23 18 18 17 16 16 16 15 14 15 17 13 11 10 12 12 12 12 11 10 11 11 12 13 13 14 14
10 10 10 9 9 8 7 6 6 5 4 4 3 3 4 4 5 5 5 5 6 8 8 9 9 9 10 11 12 11 11 11 20 23 25 27 21 19 19 18 20 19 18 21 18 20 19 19 21 23 28 29 30 35 35 37 37 36 38 36 29 21 18 17 17 16 13 13 15 13 9 11 12 12 11 11 10 10 10 10 11 11 11 12 14
12 10 10 9 9 8 7 7 6 5 4 4 4 3 4 5 5 5 5 5 6 7 8 9 9 9 9 10 12 12 13 17 23 25 26 27 25 20 18 17 18 17 19 18 20 18 20 18 18 16 19 22 22 23 27 33 36 37 36 35 35 36 32 24 19 16 15 14 15 16 14 12 12 11 10 9 10 9 8 10 11 11 12 13 12
11 10 9 9 8 7 7 6 5 5 4 4 3 4 5 6 5 4 4 5 6 7 8 8 9 9 10 11 13 13 14 19 23 26 27 28 28 24 18 18 17 20 18 20 20 20 19 19 18 17 16 26 25 24 23 24 29 34 34 33 34 34 32 34 35 24 15 15 16 17 16 13 13 12 10 9 6 8 7 10 11 12 12 14 14
10 10 9 9 8 8 7 6 6 5 5 4 4 5 5 6 4 3 4 5 6 7 7 9 9 9 10 12 13 13 15 18 25 26 27 28 28 26 19 18 18 18 20 20 19 20 20 19 18 18 17 18 18 20 20 20 20 19 18 20 20 24 27 32 32 33 28 20 18 18 18 16 15 12 8 5 6 9 8 12 12 13 13 14 17
9 9 9 8 8 7 7 6 6 5 5 5 5 5 5 4 3 3 3 5 5 6 7 7 8 9 12 12 13 15 13 22 25 27 27 29 29 26 16 16 16 18 19 19 20 20 20 19 20 20 19 19 18 20 20 19 18 16 16 16 18 18 19 19 18 16 16 16 17 18 17 16 14 14 10 7 9 9 10 12 12 14 15 17 16
9 9 8 8 8 7 7 6 6 5 5 5 5 5 4 3 2 3 4 5 5 5 6 7 9 10 11 12 13 15 14 22 24 25 28 27 30 18 15 16 17 18 19 19 20 19 19 19 19 20 20 20 24 30 27 22 19 17 18 17 16 17 18 18 21 20 18 16 14 14 13 14 15 12 9 8 9 9 9 9 10 12 12 14 15
10 9 9 9 8 7 7 7 6 5 5 5 5 5 4 2 2 2 4 5 5 5 6 7 8 10 12 12 13 14 14 19 23 25 26 28 23 17 17 16 15 17 19 20 20 20 18 19 19 19 20 20 25 30 30 28 19 17 17 17 16 15 17 16 19 24 25 26 28 27 25 24 23 22 22 23 16 12 9 11 14 7 10 14 15
9 9 9 9 8 7 7 7 7 6 5 5 5 4 2 2 2 2 3 4 5 5 6 8 9 10 12 13 12 13 15 19 24 24 26 27 24 18 16 15 16 18 18 19 18 18 21 29 26 22 21 21 27 30 31 26 19 17 16 16 17 16 17 16 14 13 20 24 26 25 25 25 24 24 24 24 24 17 11 15 11 5 12 12 14
11 10 9 9 7 7 7 6 6 6 6 5 4 3 2 2 2 3 4 4 5 5 5 8 10 11 11 12 17 17 15 17 23 24 26 26 23 17 15 15 18 17 18 19 19 18 19 20 27 25 23 24 31 30 31 27 18 17 17 16 16 17 16 15 14 13 12 11 11 13 14 19 17 15 14 21 24 21 16 16 11 10 15 13 13
10 9 9 8 7 6 6 6 6 5 5 4 3 3 2 2 3 3 4 4 4 4 6 8 11 11 11 12 12 12 14 15 17 25 26 27 27 20 17 17 16 18 18 19 20 18 18 18 20 25 27 28 29 30 29 29 20 15 15 14 14 16 14 13 14 12 12 11 10 9 12 13 12 12 11 11 14 17 17 15 15 14 12 11 13
11 10 9 9 8 7 6 6 6 5 4 4 3 2 2 2 2 3 4 3 3 5 7 8 9 11 11 11 11 12 13 15 17 24 25 27 29 27 17 17 17 17 17 19 18 19 18 17 17 23 29 29 29 30 30 30 28 18 13 15 14 15 16 14 14 20 14 13 12 11 11 11 10 10 11 12 13 13 13 15 16 15 15 13 13
10 9 10 9 8 7 7 6 5 4 4 3 2 2 2 2 3 3 3 3 5 7 8 7 9 10 10 10 11 12 13 18 16 20 25 27 28 30 19 17 20 20 19 16 18 17 18 18 17 23 31 32 31 31 31 29 30 20 17 23 25 27 19 15 13 12 11 12 12 12 12 11 11 10 11 12 12 12 12 14 14 16 16 16 15
9 9 9 8 7 7 7 7 5 4 4 4 4 2 2 3 4 3 3 3 5 7 7 8 9 10 9 9 10 11 13 13 19 19 23 27 29 28 29 24 30 21 18 19 18 18 17 19 20 29 33 35 34 34 33 33 28 20 27 26 25 27 22 14 14 13 12 11 12 12 12 11 11 11 11 11 10 9 11 13 14 15 15 16 17
10 9 8 7 7 6 6 5 5 4 5 4 3 3 2 2 2 1 2 3 4 6 7 8 9 9 10 11 10 11 12 12 17 22 21 28 27 29 29 31 30 21 19 17 17 18 17 18 23 36 38 37 36 35 33 31 22 27 28 27 25 22 16 14 13 14 13 12 13 13 12 11 10 11 11 10 10 10 12 14 15 16 15 13 15
10 9 8 8 7 6 5 5 5 5 5 4 4 3 3 2 1 0 1 2 4 6 7 8 8 9 10 11 11 11 11 13 14 18 26 26 28 28 29 30 29 29 20 16 17 17 23 33 34 32 32 33 35 33 26 25 28 28 28 28 25 13 14 13 14 13 13 13 12 12 12 11 10 11 10 10 11 11 12 14 14 13 11 11 13
10 9 8 7 7 7 7 6 5 5 4 3 3 2 2 2 1 0 1 2 4 6 8 7 8 9 10 10 12 12 13 13 13 14 16 20 22 27 30 28 28 28 25 19 26 29 28 29 31 30 27 25 21 14 11 11 19 23 25 25 15 13 12 13 13 14 13 12 12 13 11 9 9 8 9 9 10 12 12 13 10 8 8 8 8
10 9 9 8 7 8 8 6 6 5 4 3 3 3 2 2 1 1 0 2 4 6 7 8 8 9 10 11 12 13 13 13 13 14 12 14 15 18 20 19 24 24 18 16 18 17 20 21 19 25 22 28 25 24 19 18 16 14 12 11 10 12 12 12 12 12 13 11 12 10 9 8 7 7 8 9 11 12 13 12 9 9 8 7 8
10 10 9 7 6 6 5 7 6 4 3 3 3 3 3 3 2 1 1 2 4 6 7 8 8 9 9 10 11 12 13 12 12 15 17 17 17 16 17 17 17 16 17 17 17 17 17 19 19 14 15 14 14 13 13 13 11 12 11 10 11 11 11 14 14 11 10 9 9 8 8 7 8 9 8 9 10 13 11 10 9 8 6 7 9
9 10 8 7 6 5 5 5 4 4 4 3 2 2 2 3 2 1 1 2 4 6 6 7 8 8 9 10 11 11 11 11 12 21 20 25 21 19 17 18 18 16 20 27 18 15 14 14 13 14 14 15 14 13 14 13 13 13 11 9 9 9 10 10 12 12 11 9 10 9 9 8 9 9 9 10 10 12 9 9 8 8 6 7 10
9 8 7 6 6 6 5 5 5 4 3 3 2 1 3 5 4 2 1 6 9 10 9 7 8 8 8 8 9 10 11 14 26 29 28 28 29 29 27 28 26 23 26 29 17 12 14 13 13 15 15 14 14 14 14 13 13 13 12 14 11 10 9 9 9 9 7 7 8 8 9 8 9 8 8 10 10 11 9 9 7 7 8 7 10
7 7 6 5 6 5 5 4 4 4 4 4 3 3 1 1 4 4 1 5 8 9 9 11 13 14 10 8 10 16 19 23 26 27 27 27 28 29 28 29 27 27 28 19 12 12 13 13 13 13 14 13 12 13 13 13 13 12 12 12 11 12 11 10 8 6 6 7 8 8 9 9 10 10 11 9 9 9 7 4 6 8 8 9 11
9 8 7 7 7 5 4 4 3 3 3 2 2 2 2 3 2 6 2 7 8 7 9 12 14 14 14 14 12 9 16 22 25 25 26 26 26 27 27 27 26 27 28 22 11 13 12 13 13 14 13 13 13 13 13 12 12 12 12 12 12 11 11 11 11 8 7 7 8 8 8 8 9 9 7 8 8 9 7 5 6 9 7 8 11
10 9 8 8 7 6 5 5 4 4 3 3 3 2 2 2 2 1 4 3 2 2 9 14 17 16 16 17 19 18 19 22 24 24 25 25 26 26 26 24 23 25 26 16 12 12 12 12 13 13 13 13 14 13 13 13 12 12 11 12 12 12 12 14 15 12 9 8 8 8 9 9 7 6 7 7 7 8 6 6 6 9 8 7 10
10 9 8 9 8 6 5 5 4 4 3 3 3 3 2 3 3 2 5 9 8 4 6 14 18 19 17 18 20 21 21 23 23 24 24 25 26 26 24 16 18 18 15 12 13 13 12 12 13 13 13 13 13 13 13 13 12 12 12 11 11 12 13 13 12 11 11 8 9 9 9 8 7 8 8 6 7 7 5 7 5 7 9 8 10
8 9 10 8 7 7 6 6 5 5 5 4 4 3 4 3 3 2 1 1 3 5 8 10 13 16 13 13 18 20 21 23 23 23 23 24 25 25 20 12 15 14 14 13 14 13 13 13 13 14 13 13 13 13 13 13 13 12 12 12 12 12 12 11 11 11 11 11 10 7 7 6 6 7 6 6 5 6 5 7 5 6 9 8 10
10 9 8 8 7 6 6 6 5 5 5 4 4 4 3 3 3 2 1 1 2 4 5 5 6 10 13 16 20 21 22 23 22 23 22 23 23 22 14 14 14 15 15 14 13 13 12 12 12 13 13 12 13 13 12 13 13 12 13 13 13 12 12 11 12 12 12 12 12 11 7 6 5 6 6 6 6 6 4 6 7 5 9 8 9
9 8 8 7 6 6 5 6 5 5 5 5 5 4 3 3 3 2 1 0 1 2 3 6 8 8 8 8 17 20 22 22 21 19 19 19 23 13 9 11 11 12 12 13 13 13 13 13 13 13 14 13 13 14 14 13 12 13 13 13 12 12 11 11 12 12 11 11 12 12 9 7 5 5 5 5 5 5 5 4 7 5 6 11 10
7 8 7 8 7 7 7 6 7 8 5 5 4 4 4 4 3 2 1 0 1 2 3 3 5 3 6 8 15 10 13 18 19 16 17 17 13 11 13 11 11 10 11 13 13 12 13 14 13 14 14 13 13 14 14 14 13 12 12 11 11 11 16 13 13 11 11 10 10 11 12 8 5 4 4 5 4 4 6 4 5 5 3 12 12
7 12 15 16 10 7 6 6 6 5 5 4 3 3 4 4 3 2 1 0 0 1 2 2 2 3 4 6 8 8 11 9 9 9 10 9 9 9 10 11 12 12 11 12 12 12 13 13 14 13 13 13 13 12 12 14 14 12 14 13 14 13 13 11 12 11 11 11 11 10 11 12 7 3 3 4 4 5 6 5 4 5 4 7 10
9 9 11 15 8 7 5 5 5 5 3 5 4 4 4 4 3 2 1 0 0 1 1 2 3 2 5 6 6 7 6 7 6 7 8 9 9 9 10 12 12 11 11 13 13 12 13 13 13 14 14 14 14 13 14 13 12 14 13 13 14 14 13 12 12 12 11 12 11 11 10 11 12 6 3 3 4 5 6 6 5 4 6 7 10
9 9 10 10 9 8 5 5 4 4 4 3 4 3 4 4 3 2 1 0 0 0 2 2 2 3 5 8 15 12 3 4 6 7 7 8 9 9 9 10 11 11 11 12 12 12 12 12 13 13 13 14 14 13 15 14 13 14 14 13 11 13 14 13 12 12 12 12 11 11 10 10 10 10 6 3 5 6 5 5 5 5 5 7 9
11 11 10 8 8 6 6 4 4 5 4 4 3 3 4 3 3 2 1 0 0 1 1 2 2 3 8 14 13 14 6 3 4 7 7 7 8 8 9 9 9 10 12 11 12 13 13 14 13 12 13 14 13 13 14 16 16 15 14 15 16 15 14 15 14 13 13 12 12 11 11 10 10 10 10 6 4 5 5 5 6 6 5 6 7
9 8 8 7 7 6 6 6 5 5 4 4 3 4 5 4 3 2 1 1 0 0 1 2 2 3 5 10 12 11 3 3 5 6 6 7 7 8 8 9 10 10 9 10 10 10 11 11 12 12 13 13 14 13 13 16 17 15 12 13 12 13 15 15 14 14 13 13 12 13 13 11 10 9 9 6 4 5 5 6 6 6 6 7 7
8 7 6 6 5 5 4 6 5 4 3 4 5 4 4 4 3 2 1 0 0 0 0 2 2 3 3 5 6 5 4 5 5 5 6 7 7 8 8 9 9 10 10 10 10 11 11 11 12 12 13 12 13 14 11 12 15 14 14 13 11 13 13 15 15 14 13 13 13 13 12 11 10 9 9 8 4 4 5 6 7 8 7 7 8
8 8 7 7 6 6 5 4 4 4 5 4 3 4 4 3 2 2 1 1 0 0 0 1 2 2 4 3 4 4 4 4 6 6 6 6 8 8 9 9 9 10 10 10 11 11 10 11 12 13 14 13 13 13 14 15 13 16 15 13 10 13 13 14 15 15 13 13 12 12 12 10 10 9 8 8 5 4 5 6 7 8 8 8 9
8 7 6 6 6 5 5 4 3 4 4 3 4 4 3 3 2 2 1 1 1 0 0 1 1 2 2 2 3 4 4 4 5 5 6 6 7 8 8 9 10 10 9 9 10 11 12 11 12 13 13 13 14 13 12 15 16 14 15 15 15 14 14 14 13 13 13 13 12 12 11 11 10 9 10 9 6 3 4 5 7 8 8 9 9
8 6 6 6 7 5 4 4 4 4 4 3 3 4 3 2 2 2 2 1 1 0 0 0 1 1 2 2 2 3 4 4 4 5 5 6 6 7 8 9 9 9 10 10 10 11 11 12 12 13 13 14 14 14 13 14 19 16 13 12 14 16 17 17 15 12 13 13 12 10 10 10 10 9 10 9 7 5 4 5 6 8 8 8 8
6 6 5 6 6 6 5 5 5 3 2 3 3 3 3 3 2 2 1 1 1 0 0 0 1 1 2 2 2 3 3 3 4 5 5 5 6 7 8 8 9 9 10 10 10 10 11 11 12 12 13 15 15 14 13 13 17 19 19 13 14 19 22 24 15 15 14 14 12 11 11 10 9 9 9 9 7 5 5 6 5 6 7 8 8
7 7 7 6 6 6 6 5 3 4 4 4 4 3 3 2 2 2 2 1 1 0 0 0 0 1 1 2 2 3 3 4 3 4 4 5 6 6 7 8 9 9 9 10 10 11 11 11 12 12 12 13 12 13 13 13 19 16 15 18 24 33 30 29 20 19 22 15 14 13 11 10 10 11 10 9 8 4 5 6 6 7 6 6 8
7 6 6 6 6 5 3 3 3 3 2 2 3 3 3 2 2 2 1 1 1 0 0 0 0 0 1 2 3 3 3 3 4 4 5 5 6 6 7 8 8 8 8 9 10 10 10 11 11 11 12 12 13 13 12 13 16 19 17 23 34 33 32 30 24 32 23 14 15 12 12 11 11 10 9 9 8 8 5 4 7 6 7 7 7
6 6 6 6 6 5 5 4 4 3 3 3 3 3 3 2 2 1 1 1 1 0 0 0 0 0 1 1 2 3 3 3 3 4 5 5 5 6 6 7 8 9 10 9 9 10 10 11 11 12 12 13 13 13 11 14 16 19 27 34 36 38 35 35 25 30 34 23 14 15 14 14 13 14 12 11 9 8 8 8 2 6 7 7 7
Wind_Direction
172 173 170 174 170 177 184 187 196 201 208 218 230 239 245 249 254 259 271 269 275 284 292 296 293 288 285 283 282 280 277 277 275 274 273 271 268 268 271 270 268 269 272 274 272 267 265 264 264 263 263 261 261 262 260 258 257 256 255 255 255 254 255 258 262 268 265 256 261 261 263 267 267 263 266 266 267 268 267 270 273 270 270 267 266
175 168 167 168 171 180 183 186 191 200 208 216 230 236 244 250 255 267 269 276 281 293 299 300 298 294 291 286 282 280 277 276 277 275 273 274 272 270 271 272 271 275 281 283 272 268 265 265 265 265 264 263 264 263 263 262 259 257 256 253 253 254 251 256 257 260 266 252 258 253 256 255 262 261 263 266 267 268 269 271 269 270 273 272 266
165 162 161 163 173 175 180 187 190 200 208 219 225 233 243 252 259 266 276 282 291 293 303 300 296 292 288 285 284 283 280 280 279 279 277 275 275 274 274 276 278 281 280 275 271 271 267 265 265 266 265 265 264 263 262 262 263 262 260 257 259 258 254 251 258 263 267 264 260 260 254 256 259 264 261 260 264 268 273 273 274 277 268 265 267
159 157 159 163 168 172 180 185 192 200 208 216 221 230 243 254 261 268 278 285 293 295 296 295 292 290 287 284 284 285 285 284 283 279 278 278 278 277 277 277 280 281 280 276 273 269 268 267 266 266 265 266 263 262 261 260 259 261 262 261 260 257 254 259 258 258 262 268 262 260 258 264 262 262 260 263 265 267 268 274 276 274 274 269 263
156 157 160 162 168 176 182 185 193 200 206 212 219 231 243 251 256 269 277 282 292 296 294 292 291 288 284 285 285 285 286 287 285 283 280 279 278 281 284 286 285 281 281 275 272 272 270 268 269 266 266 265 265 264 263 262 261 260 262 264 261 261 261 254 252 251 255 256 259 258 266 265 263 262 264 268 269 270 271 269 273 276 274 267 263
155 154 160 163 170 178 180 185 193 197 201 211 221 229 239 246 257 269 275 283 292 291 291 290 289 287 284 284 286 286 286 285 285 285 285 285 285 285 286 287 286 278 277 273 272 273 271 272 269 267 263 261 264 265 266 264 265 263 263 262 261 265 265 257 256 262 262 259 256 257 254 259 259 256 255 262 266 271 276 275 269 265 268 270 263
153 154 159 163 168 177 182 185 188 192 197 209 213 225 236 248 263 271 282 283 285 287 289 289 285 285 285 285 285 286 286 286 286 288 288 290 289 287 289 289 285 281 277 276 271 267 272 268 268 264 259 258 260 265 267 264 263 262 261 262 262 258 262 270 275 271 268 271 267 258 258 257 258 262 258 260 263 267 279 286 281 265 259 260 268
152 154 156 164 172 176 180 182 184 191 196 204 219 229 244 254 266 271 277 281 281 287 290 288 286 283 284 284 286 286 288 288 288 289 290 291 292 292 290 288 284 281 278 275 275 273 268 268 265 264 260 259 260 262 260 262 261 260 262 263 262 260 258 261 265 270 274 272 270 262 250 253 250 254 264 263 267 268 262 269 278 283 279 264 249
152 155 160 168 172 170 170 173 177 186 197 206 221 233 247 266 269 270 268 272 280 284 285 285 286 284 284 286 287 289 289 286 286 286 294 297 296 291 289 286 285 282 280 275 271 271 269 268 268 260 258 256 258 256 257 256 259 259 259 260 261 258 259 257 257 258 264 273 272 257 246 245 245 250 253 254 258 265 277 270 271 276 280 279 268
152 157 163 168 165 167 169 170 177 185 192 206 218 234 251 259 259 262 268 274 284 287 285 281 280 284 288 290 291 290 286 286 283 288 293 293 296 296 293 290 285 281 277 273 269 263 266 266 264 268 259 258 258 258 257 257 256 256 255 255 255 256 255 255 257 256 257 263 273 260 236 236 240 239 247 256 266 275 278 277 276 281 281 275 275
154 161 164 165 163 161 168 172 177 183 192 200 212 232 248 252 260 263 267 281 287 285 282 283 285 288 289 292 293 289 286 284 286 294 296 298 298 296 293 287 287 283 280 283 276 279 269 271 265 269 264 256 260 260 258 259 257 259 259 254 252 252 254 251 251 257 259 257 265 271 249 248 249 249 253 265 268 272 272 274 275 275 271 272 272
157 162 161 160 163 165 168 167 173 185 186 204 212 223 245 251 254 261 276 288 284 282 282 283 288 292 292 291 290 290 288 287 292 300 300 301 301 298 295 293 290 288 288 284 286 285 286 283 281 274 270 262 262 262 261 261 258 258 259 259 261 264 259 251 251 253 250 254 259 266 268 255 254 252 257 263 271 275 271 278 280 281 275 263 261
155 156 156 159 161 163 163 167 174 181 193 200 213 224 235 245 250 262 277 285 285 278 282 290 291 295 293 293 293 292 290 290 297 301 302 304 304 304 299 294 292 292 291 292 291 291 289 287 287 280 277 274 266 262 260 260 256 255 257 259 263 262 260 255 250 247 250 251 255 260 266 270 262 260 263 268 284 285 295 287 283 282 284 279 259
151 152 155 160 160 159 166 164 176 183 189 199 210 221 230 240 252 267 277 277 276 282 284 288 291 292 295 297 295 293 291 291 297 302 307 308 307 307 302 299 297 294 294 293 290 289 286 285 284 281 279 276 271 264 257 255 257 256 256 258 262 261 260 259 257 249 243 244 248 252 258 263 265 271 269 266 274 273 285 280 284 285 284 280 295
150 152 154 158 158 161 165 169 175 182 189 201 211 223 229 238 253 266 273 272 277 281 288 292 294 295 298 298 301 299 288 294 301 304 308 310 311 311 304 302 299 297 295 292 290 288 286 284 282 282 282 280 276 272 263 259 257 256 257 259 263 262 259 257 254 249 245 244 248 255 257 255 256 261 263 252 257 263 262 274 282 284 286 292 293
148 150 155 160 162 164 165 169 175 180 191 202 213 224 222 224 241 268 273 276 275 278 286 287 290 292 292 293 290 291 292 299 303 307 311 312 312 311 306 302 301 297 294 293 290 288 286 283 282 281 279 278 278 276 270 267 264 258 258 259 261 265 263 257 253 253 252 250 249 251 255 257 256 254 250 250 259 263 265 270 271 269 283 289 281
155 158 161 160 163 163 168 169 173 182 191 203 214 219 214 215 234 250 271 277 278 282 288 292 292 292 286 283 285 286 290 300 306 310 312 313 314 311 309 303 293 292 294 294 293 291 287 284 282 282 279 278 278 278 275 272 268 264 259 258 259 261 263 264 259 255 250 250 253 256 259 260 258 258 258 258 260 259 262 261 259 260 274 276 274
157 158 160 159 162 162 167 167 173 184 190 207 214 216 212 233 222 243 257 275 280 284 292 295 295 290 283 281 279 291 298 302 307 311 314 314 316 313 307 301 296 297 296 296 296 293 291 289 287 285 283 282 282 281 278 273 267 262 258 258 261 258 258 258 259 257 253 250 250 250 252 256 259 259 259 261 261 259 252 255 264 276 260 252 265
159 159 157 155 156 156 163 169 176 180 193 206 215 221 224 221 235 251 254 264 272 280 292 301 298 291 278 277 291 297 298 304 308 312 315 318 319 315 311 305 301 301 303 302 299 297 293 290 286 284 283 282 283 283 280 275 264 256 254 254 257 260 262 268 264 256 253 250 245 244 248 250 251 249 248 247 250 250 246 250 263 244 248 251 255
148 141 141 145 148 155 163 173 177 180 193 206 217 232 241 248 243 259 270 266 274 295 307 300 290 288 293 292 295 295 302 303 307 312 316 318 320 320 315 309 305 305 305 304 305 301 298 295 292 289 288 288 287 287 286 283 275 256 244 243 246 256 260 254 255 266 269 259 252 238 239 243 242 239 239 235 238 239 243 242 243 241 235 241 244
138 141 140 143 150 158 162 174 180 186 192 200 209 223 242 255 272 271 269 274 287 295 290 286 290 296 301 298 296 302 302 305 308 313 316 318 320 321 316 314 311 308 308 308 305 304 301 297 294 294 292 291 290 289 288 285 282 276 253 241 240 249 256 256 257 255 257 263 266 266 262 256 249 243 242 240 237 241 242 239 239 235 234 234 236
136 136 141 144 148 155 161 167 176 184 197 200 198 214 217 238 262 265 275 294 303 303 300 294 300 300 300 302 304 304 307 309 311 314 317 320 321 322 322 319 318 316 312 306 304 303 302 300 298 295 293 291 289 288 287 285 282 280 267 256 248 252 253 253 254 251 249 253 252 254 254 252 253 245 241 240 237 238 244 248 246 238 230 225 228
131 134 137 140 147 155 162 168 175 182 190 190 191 208 205 215 245 248 265 308 314 313 308 311 309 308 306 309 311 309 311 312 314 315 319 324 323 324 324 322 322 321 314 308 307 304 303 301 298 297 295 292 288 285 281 280 280 276 274 267 257 252 253 254 255 254 253 251 251 252 250 250 249 249 247 250 248 248 258 257 252 241 228 228 228
130 130 135 141 146 157 162 169 177 182 184 181 183 186 203 219 234 228 314 313 327 325 322 317 314 312 318 314 314 316 316 317 318 320 323 325 326 325 325 325 326 323 316 309 306 305 304 304 302 301 298 297 294 289 282 275 270 270 269 268 261 253 250 249 247 250 250 248 249 248 249 248 249 252 255 261 266 264 268 267 259 243 234 230 230
132 135 140 145 150 154 159 169 176 180 178 179 176 176 198 197 178 124 300 320 335 326 319 318 319 322 318 316 315 317 321 319 318 320 323 324 327 328 329 329 328 326 321 313 309 307 312 312 308 307 306 305 301 291 283 275 269 267 267 263 259 251 248 244 248 249 248 247 246 248 251 247 245 252 261 268 273 276 272 270 256 244 234 228 231
133 137 137 144 152 151 157 166 175 170 183 175 179 171 148 151 112 0 317 335 333 322 316 321 324 322 319 318 319 318 321 321 318 319 317 327 330 331 331 332 330 328 325 317 316 319 317 314 313 312 312 315 318 297 269 276 266 264 260 256 255 248 243 246 246 248 249 251 250 249 250 250 249 253 262 270 276 271 267 258 242 221 202 200 200
130 135 142 143 147 157 164 166 166 171 181 179 176 162 158 148 155 199 310 341 322 316 319 328 326 324 322 320 319 320 320 320 324 326 325 330 334 334 335 333 333 331 329 324 326 325 317 318 317 318 317 318 326 334 316 272 269 269 262 251 243 240 240 245 246 249 250 248 253 251 249 250 258 265 264 268 266 267 259 243 222 214 198 190 170
138 141 144 143 147 163 166 156 159 156 170 175 162 159 160 162 169 182 42 323 313 319 327 328 329 325 322 320 321 322 320 320 327 333 339 338 336 337 337 337 336 333 331 331 331 323 322 321 322 325 326 330 336 337 337 332 298 262 249 247 241 230 231 237 244 246 246 251 257 254 249 247 253 256 261 262 263 268 252 223 210 206 193 171 157
121 130 138 136 143 158 154 160 163 149 152 152 166 164 154 162 173 183 238 260 312 322 323 326 326 325 323 322 324 318 320 325 330 335 337 339 340 340 339 340 338 336 337 337 329 326 335 332 331 334 339 338 338 336 337 333 336 336 309 261 231 233 231 230 238 240 240 240 248 253 256 252 256 256 260 262 262 264 236 216 209 191 197 174 158
129 139 144 144 147 154 149 146 148 148 148 140 139 154 227 220 221 216 318 338 337 335 339 334 332 329 323 322 326 322 324 328 333 338 340 342 343 344 342 341 341 344 345 342 337 339 343 337 340 341 338 340 338 338 335 335 335 333 333 332 310 261 238 237 234 237 230 231 241 245 249 253 258 256 257 264 270 264 223 211 203 192 174 167 154
132 136 146 154 160 148 143 138 147 142 144 148 156 145 119 288 244 228 288 334 337 339 348 346 342 339 337 331 329 330 329 335 339 341 343 343 345 346 345 345 345 350 352 349 345 350 344 342 339 338 342 336 336 335 332 333 333 331 330 324 325 322 287 248 233 226 234 242 245 249 255 257 262 261 266 267 269 260 219 218 201 193 178 159 155
144 151 151 150 145 140 127 128 132 127 121 114 119 125 143 143 166 187 138 2 343 343 350 351 350 349 346 348 344 331 338 343 344 344 345 344 346 348 348 346 348 351 351 352 356 353 344 340 339 340 333 333 339 335 332 331 329 329 327 326 324 324 329 321 312 277 237 229 243 253 254 256 253 255 254 258 264 258 213 195 207 189 182 162 155
132 142 148 145 139 136 134 138 140 133 131 115 92 69 55 26 40 7 195 196 3 356 1 357 355 355 351 352 351 347 347 347 346 347 347 347 349 349 348 344 345 350 351 355 358 349 344 339 335 329 334 336 333 333 335 332 328 328 326 322 317 319 316 311 308 303 278 242 242 245 248 249 249 247 251 249 256 253 213 189 218 185 172 162 153
140 151 153 146 139 140 140 141 139 132 124 119 119 106 88 92 73 41 348 338 347 349 350 -0 358 351 350 352 350 350 350 351 349 348 349 350 351 350 349 343 347 349 357 356 356 350 339 339 335 329 329 328 330 335 333 330 331 328 324 319 317 314 311 310 310 312 315 277 244 245 245 246 251 256 255 248 250 254 223 193 215 189 166 164 156
132 132 124 130 134 138 138 140 139 138 140 133 127 124 124 117 116 97 54 351 326 318 316 325 339 345 346 348 348 350 350 352 350 348 348 350 352 350 345 349 355 350 355 358 355 348 341 336 334 333 326 326 333 329 330 331 329 328 325 323 319 315 314 317 317 317 314 312 289 257 249 248 247 247 252 250 250 242 235 196 224 205 160 160 160
139 140 141 136 132 136 138 143 144 141 138 134 132 129 129 132 120 119 136 221 263 289 291 305 304 307 341 354 354 351 350 350 349 348 347 352 355 357 1 359 355 354 350 346 344 338 334 329 329 327 325 327 327 330 330 327 327 326 328 325 321 317 318 321 322 320 317 311 305 291 269 254 243 246 240 246 245 237 238 207 203 243 164 152 160
139 135 141 145 136 127 125 124 128 132 130 129 134 129 129 120 115 123 141 217 264 267 290 312 323 329 347 356 353 341 344 348 344 342 349 354 -0 1 0 358 347 341 341 341 341 336 336 333 331 328 328 322 325 333 330 324 324 322 325 326 320 320 319 322 320 319 315 315 318 311 280 252 241 231 231 236 237 232 228 233 199 220 192 152 147
128 132 130 133 126 126 128 133 136 133 125 128 126 128 124 118 115 117 125 318 298 308 317 322 332 331 338 328 331 327 341 340 342 349 353 355 354 358 -0 353 348 340 336 337 335 332 332 330 327 329 327 322 320 322 329 330 323 323 326 323 326 322 325 322 320 319 318 318 321 326 319 285 238 228 222 228 223 227 218 219 202 198 207 160 157
113 128 134 139 136 135 133 130 135 135 134 129 136 136 128 123 121 122 124 215 276 315 303 311 315 332 326 321 303 330 351 348 351 338 332 331 332 346 348 350 349 343 334 335 330 335 334 327 326 327 325 326 325 325 324 325 330 324 328 330 333 332 332 335 331 327 327 325 322 322 321 318 289 235 214 213 219 221 218 204 213 187 174 170 166
132 136 142 140 129 128 123 131 134 136 139 138 139 140 127 123 119 123 135 139 338 323 310 322 318 322 319 296 297 356 359 338 328 326 320 328 334 337 352 350 344 336 333 334 335 331 329 327 324 324 327 324 324 327 332 326 327 332 327 332 334 331 338 334 330 330 326 322 319 317 316 319 316 294 215 208 212 215 213 203 196 199 181 177 172
134 136 142 141 135 129 122 126 138 136 140 133 138 132 119 117 119 125 123 105 343 294 298 294 290 306 299 314 346 6 9 322 321 320 322 322 325 329 332 339 343 338 334 329 325 324 326 324 321 320 327 324 322 329 335 331 329 330 337 329 327 341 335 332 334 330 326 321 316 314 312 311 316 315 285 220 210 213 212 204 193 196 197 183 174
138 142 140 135 137 132 136 136 133 134 133 133 137 128 122 119 117 120 114 125 157 290 289 292 296 304 310 336 351 1 4 318 324 317 316 322 327 330 329 326 331 335 332 327 324 327 329 324 315 320 319 323 317 315 333 338 339 336 332 339 340 332 337 340 336 331 327 322 317 311 308 308 307 306 300 268 210 209 208 201 198 196 192 187 179
132 129 126 128 137 147 141 138 135 137 142 140 126 117 111 112 118 119 129 136 215 286 290 299 306 313 317 339 350 356 352 336 319 314 313 321 321 322 324 327 326 320 316 313 305 311 309 307 313 319 320 315 318 316 332 343 340 330 328 326 329 340 343 338 334 332 331 325 318 312 308 306 306 307 307 287 225 203 200 198 199 197 193 181 176
117 119 118 125 122 112 115 129 137 137 136 128 123 117 118 113 114 121 135 134 171 286 298 308 308 320 312 329 342 355 356 341 324 322 319 322 323 321 321 321 319 319 322 319 320 318 313 315 320 321 320 319 321 322 325 339 342 339 333 328 333 339 341 341 338 333 328 322 316 315 309 305 300 300 299 290 245 204 196 198 194 194 192 189 176
125 127 130 126 132 126 128 125 125 131 132 134 121 117 113 118 120 138 142 144 149 228 303 301 315 308 318 329 341 344 334 326 319 317 322 325 322 319 322 317 320 318 315 321 318 312 314 324 328 330 324 323 324 324 332 340 341 346 341 335 331 345 347 337 335 326 317 312 313 312 307 301 297 295 293 290 257 210 201 191 194 190 187 187 180
132 129 126 125 126 122 127 131 141 142 149 147 135 126 121 118 127 141 140 141 141 199 279 300 294 303 308 321 326 331 321 314 312 314 316 324 324 321 317 320 316 311 314 316 319 322 321 318 328 327 326 326 326 322 316 347 352 346 346 347 352 348 343 338 327 323 326 321 312 306 302 300 292 287 284 288 273 215 203 191 193 194 193 188 186
127 126 123 124 128 125 125 132 140 148 142 133 121 120 122 129 137 138 143 127 139 164 264 292 303 309 318 322 324 317 317 318 315 320 315 307 309 311 320 320 314 315 319 316 322 325 323 324 326 329 328 326 322 321 316 344 357 352 345 348 352 353 354 348 341 333 327 321 312 301 300 300 298 297 293 281 261 213 189 186 187 186 195 191 190
129 129 125 119 119 123 135 143 142 144 133 130 124 119 119 128 136 144 136 147 154 172 227 267 274 302 319 318 316 304 309 306 308 307 311 316 315 316 314 315 320 320 317 315 321 325 328 326 327 324 325 329 330 325 322 343 353 358 357 353 356 358 355 353 347 345 343 333 323 318 310 310 311 310 307 299 257 203 184 179 184 187 186 190 189
135 132 131 134 130 136 146 152 154 156 148 139 126 119 127 131 139 133 141 144 140 152 215 277 294 309 313 307 302 301 296 305 307 315 317 316 314 316 314 312 314 314 320 322 320 321 320 323 324 323 324 326 324 324 319 344 0 356 350 358 357 359 360 359 357 355 347 342 341 331 329 330 334 329 327 331 329 292 197 181 180 180 181 182 184
136 130 127 130 132 134 133 133 130 124 126 127 126 123 130 136 139 143 145 143 147 159 201 234 277 302 311 309 312 304 313 319 323 317 312 311 316 315 316 318 317 319 320 317 320 320 321 322 319 319 321 323 324 324 326 347 357 360 358 358 359 2 3 2 359 1 359 351 349 343 343 344 344 342 342 339 338 333 327 211 184 175 179 173 180
124 125 122 127 128 131 136 137 136 136 132 135 132 132 143 146 144 144 151 148 149 164 188 251 295 288 299 293 298 299 311 310 313 307 305 307 311 316 321 322 323 325 321 319 317 320 323 321 325 325 323 327 327 324 328 351 356 359 0 0 3 5 5 7 5 4 3 1 357 359 360 354 358 358 352 352 342 349 349 334 281 180 176 183 178